Orbital Elements at Epoch 2459200.5 (2020-Dec-17.0) TDB
Reference: JPL 18 (heliocentric ecliptic J2000)
Element | Value | Uncertainty (1-sigma) | Units |
e | .09296770491561529 | 5.5551e-08 | |
a | 2.666605737276412 | 1.3547e-08 | au |
q | 2.418697521967012 | 1.4767e-07 | au |
i | 6.097702551442837 | 6.3048e-06 | deg |
node | 180.1173617343938 | 3.778e-05 | deg |
peri | 161.8577518075338 | 4.6557e-05 | deg |
M | 111.5133672183533 | 2.577e-05 | deg |
tp | 2458707.824382397632 (2019-Aug-12.32438240) | 0.00011364 | TDB |
period | 1590.510866643988 4.35 | 1.212e-05 3.318e-08 | d yr |
n | .2263423705866328 | 1.7248e-09 | deg/d |
Q | 2.914513952585812 | 1.4806e-08 | au |
|
| | Orbit Determination Parameters
Additional Information
|